DLH39X EDDF-LPPT

Flight info

Callsign DLH39X
Flight time N/A
Altitude 33000
Route ANEKI2L/18 ANEKI Y163 HERBI Y164 MOPAN DCT LUTIX DCT BENOT DCT NEMOS DCT NINTU DCT MEBAK DCT REPSI DCT LERGA DCT MINSO DCT NARAK DCT AGN DCT LATEK N995 PPN DCT MIRPO DCT DGO DCT NEA DCT ARDID DCT INBOM
Aircraft A321/M-SDE3FGHIRWY/LB1

Departure

Time 2026-04-18 10:52
Airport Frankfurt Main Airport (EDDF)

Arrival

Time N/A
Airport Lisbon Humberto Delgado Airport (LPPT)
Time Latitude Longitude Altitude Speed Heading
2026-04-18 10:05 50.04803 8.56912 360 ft 0 kts 295°
2026-04-18 10:36 50.04803 8.56914 356 ft 2 kts 295°
2026-04-18 10:36 50.04793 8.56951 360 ft 4 kts 286°
2026-04-18 10:36 50.04788 8.56991 359 ft 4 kts 269°
2026-04-18 10:36 50.04793 8.57029 361 ft 4 kts 226°
2026-04-18 10:37 50.04803 8.57041 364 ft 1 kts 204°
2026-04-18 10:37 50.04805 8.57042 364 ft 0 kts 204°
2026-04-18 10:42 50.04802 8.57040 356 ft 1 kts 204°
2026-04-18 10:42 50.04759 8.57010 358 ft 9 kts 204°
2026-04-18 10:42 50.04698 8.56966 356 ft 10 kts 205°
2026-04-18 10:42 50.04633 8.56921 360 ft 10 kts 200°
2026-04-18 10:43 50.04572 8.56897 364 ft 6 kts 193°
2026-04-18 10:43 50.04538 8.56885 359 ft 6 kts 193°
2026-04-18 10:43 50.04486 8.56865 359 ft 12 kts 197°
2026-04-18 10:43 50.04429 8.56731 361 ft 17 kts 250°
2026-04-18 10:44 50.04394 8.56586 360 ft 15 kts 249°
2026-04-18 10:44 50.04357 8.56433 356 ft 16 kts 249°
2026-04-18 10:44 50.04318 8.56270 358 ft 17 kts 250°
2026-04-18 10:44 50.04278 8.56101 362 ft 17 kts 249°
2026-04-18 10:45 50.04235 8.55922 356 ft 18 kts 249°
2026-04-18 10:45 50.04190 8.55734 355 ft 18 kts 250°
2026-04-18 10:45 50.04153 8.55576 359 ft 16 kts 250°
2026-04-18 10:45 50.04114 8.55418 353 ft 16 kts 249°
2026-04-18 10:46 50.04077 8.55261 359 ft 15 kts 250°
2026-04-18 10:46 50.04041 8.55108 354 ft 15 kts 250°
2026-04-18 10:46 50.04002 8.54944 356 ft 17 kts 250°
2026-04-18 10:46 50.03959 8.54766 356 ft 19 kts 248°
2026-04-18 10:47 50.03912 8.54571 352 ft 17 kts 250°
2026-04-18 10:47 50.03871 8.54402 349 ft 15 kts 246°
2026-04-18 10:47 50.03812 8.54261 348 ft 16 kts 239°
2026-04-18 10:47 50.03770 8.54096 348 ft 17 kts 250°
2026-04-18 10:48 50.03728 8.53922 349 ft 18 kts 250°
2026-04-18 10:48 50.03684 8.53737 348 ft 19 kts 250°
2026-04-18 10:48 50.03635 8.53545 339 ft 20 kts 248°
2026-04-18 10:48 50.03586 8.53344 338 ft 20 kts 250°
2026-04-18 10:49 50.03543 8.53161 335 ft 18 kts 249°
2026-04-18 10:49 50.03501 8.52988 334 ft 16 kts 249°
2026-04-18 10:49 50.03463 8.52843 336 ft 12 kts 245°
2026-04-18 10:49 50.03430 8.52723 331 ft 10 kts 248°
2026-04-18 10:50 50.03401 8.52625 331 ft 10 kts 235°
2026-04-18 10:50 50.03344 8.52593 335 ft 8 kts 178°
2026-04-18 10:50 50.03338 8.52593 335 ft 0 kts 178°
2026-04-18 10:51 50.03169 8.52595 335 ft 59 kts 179°
2026-04-18 10:51 50.02533 8.52604 335 ft 122 kts 179°
2026-04-18 10:51 50.01503 8.52614 331 ft 172 kts 180°
2026-04-18 10:51 50.00242 8.52626 764 ft 183 kts 180°
2026-04-18 10:52 49.98934 8.52662 1325 ft 193 kts 179°
2026-04-18 10:52 49.97554 8.52713 1657 ft 207 kts 179°
2026-04-18 10:52 49.96039 8.52801 1827 ft 227 kts 177°
2026-04-18 10:52 49.94439 8.52941 2340 ft 232 kts 177°
2026-04-18 10:53 49.92813 8.53084 2952 ft 235 kts 178°
2026-04-18 10:53 49.91173 8.53219 3714 ft 235 kts 179°
2026-04-18 10:53 49.89541 8.53348 4466 ft 235 kts 179°
2026-04-18 10:53 49.87903 8.53475 5137 ft 237 kts 179°
2026-04-18 10:54 49.86246 8.53582 5772 ft 240 kts 179°
2026-04-18 10:54 49.84569 8.53673 6404 ft 242 kts 179°
2026-04-18 10:54 49.82880 8.53767 7044 ft 242 kts 179°
2026-04-18 10:54 49.81197 8.53874 7689 ft 243 kts 179°
2026-04-18 10:55 49.79499 8.53992 8277 ft 247 kts 179°
2026-04-18 10:55 49.77768 8.54070 8823 ft 251 kts 185°
2026-04-18 10:55 49.75977 8.53911 9172 ft 267 kts 185°
2026-04-18 10:55 49.74073 8.53682 9474 ft 280 kts 186°
2026-04-18 10:56 49.72109 8.53407 10020 ft 285 kts 187°
2026-04-18 10:56 49.70134 8.53123 10370 ft 297 kts 187°
2026-04-18 10:56 49.68026 8.52822 10495 ft 315 kts 187°
2026-04-18 10:56 49.65778 8.52507 10622 ft 333 kts 187°
2026-04-18 10:57 49.63403 8.52181 10745 ft 350 kts 187°
2026-04-18 10:57 49.60933 8.51852 11004 ft 360 kts 186°
2026-04-18 10:57 49.58419 8.51528 11468 ft 365 kts 187°
2026-04-18 10:57 49.55875 8.51202 11958 ft 368 kts 187°
2026-04-18 10:58 49.53310 8.50871 12452 ft 372 kts 187°
2026-04-18 10:58 49.51597 8.50648 12777 ft 374 kts 187°
2026-04-18 10:58 49.48994 8.50307 13274 ft 377 kts 187°
2026-04-18 10:58 49.46370 8.49961 13758 ft 380 kts 188°
2026-04-18 10:59 49.43718 8.49608 14210 ft 384 kts 188°
2026-04-18 10:59 49.41045 8.49257 14624 ft 387 kts 188°
2026-04-18 10:59 49.38353 8.48903 15061 ft 390 kts 188°
2026-04-18 10:59 49.35644 8.48551 15510 ft 392 kts 188°
2026-04-18 11:00 49.32914 8.48198 15956 ft 395 kts 188°
2026-04-18 11:00 49.30180 8.47846 16410 ft 397 kts 188°
2026-04-18 11:00 49.27413 8.47487 16829 ft 399 kts 188°
2026-04-18 11:00 49.24634 8.47123 17244 ft 402 kts 188°
2026-04-18 11:01 49.21844 8.46755 17646 ft 404 kts 188°
2026-04-18 11:01 49.19048 8.46387 18020 ft 407 kts 188°
2026-04-18 11:01 49.16187 8.46016 18406 ft 410 kts 188°
2026-04-18 11:02 49.10472 8.45282 19114 ft 414 kts 188°
2026-04-18 11:02 49.07599 8.44916 19470 ft 415 kts 188°
2026-04-18 11:02 49.04792 8.44232 19809 ft 414 kts 196°
2026-04-18 11:02 49.01984 8.43255 20168 ft 415 kts 196°
2026-04-18 11:03 48.99155 8.42265 20526 ft 417 kts 196°
2026-04-18 11:03 48.96318 8.41271 20856 ft 419 kts 196°
2026-04-18 11:03 48.93466 8.40274 21221 ft 421 kts 196°
2026-04-18 11:03 48.90602 8.39274 21582 ft 423 kts 196°
2026-04-18 11:04 48.87727 8.38274 21928 ft 425 kts 196°
2026-04-18 11:04 48.84837 8.37272 22279 ft 427 kts 196°
2026-04-18 11:04 48.81936 8.36267 22621 ft 428 kts 196°
2026-04-18 11:04 48.79026 8.35260 22957 ft 430 kts 196°
2026-04-18 11:05 48.76089 8.34228 23268 ft 433 kts 196°
2026-04-18 11:05 48.73154 8.33165 23543 ft 435 kts 197°
2026-04-18 11:05 48.70206 8.32081 23839 ft 437 kts 197°
2026-04-18 11:05 48.67247 8.30984 24102 ft 439 kts 197°
2026-04-18 11:06 48.64281 8.29885 24387 ft 440 kts 197°
2026-04-18 11:06 48.61305 8.28788 24666 ft 441 kts 197°
2026-04-18 11:06 48.58314 8.27694 24941 ft 443 kts 197°
2026-04-18 11:06 48.55312 8.26606 25208 ft 444 kts 197°
2026-04-18 11:07 48.52299 8.25519 25459 ft 446 kts 197°
2026-04-18 11:07 48.49279 8.24432 25727 ft 447 kts 197°
2026-04-18 11:07 48.46247 8.23338 25990 ft 449 kts 197°
2026-04-18 11:07 48.43203 8.22230 26253 ft 450 kts 197°
2026-04-18 11:08 48.40192 8.21130 26508 ft 452 kts 197°
2026-04-18 11:08 48.37132 8.20010 26760 ft 453 kts 197°
2026-04-18 11:08 48.34067 8.18890 26983 ft 455 kts 197°
2026-04-18 11:08 48.30982 8.17767 27221 ft 457 kts 197°
2026-04-18 11:09 48.27885 8.16641 27453 ft 458 kts 197°
2026-04-18 11:09 48.24824 8.15353 27668 ft 456 kts 203°
2026-04-18 11:09 48.21920 8.13450 27870 ft 454 kts 210°
2026-04-18 11:09 48.19086 8.11331 28080 ft 456 kts 210°
2026-04-18 11:10 48.16241 8.09217 28287 ft 457 kts 210°
2026-04-18 11:10 48.13387 8.07109 28452 ft 458 kts 210°
2026-04-18 11:10 48.10526 8.05003 28691 ft 458 kts 210°
2026-04-18 11:10 48.07672 8.02905 28960 ft 457 kts 210°
2026-04-18 11:11 48.04819 8.00810 29241 ft 456 kts 210°
2026-04-18 11:11 48.01971 7.98716 29513 ft 455 kts 210°
2026-04-18 11:11 47.99132 7.96631 29778 ft 455 kts 210°
2026-04-18 11:11 47.96295 7.94551 30042 ft 454 kts 210°
2026-04-18 11:12 47.93461 7.92477 30262 ft 454 kts 210°
2026-04-18 11:12 47.90623 7.90404 30456 ft 453 kts 210°
2026-04-18 11:12 47.87793 7.88342 30676 ft 452 kts 210°
2026-04-18 11:12 47.84972 7.86287 30903 ft 451 kts 210°
2026-04-18 11:13 47.82151 7.84231 31124 ft 451 kts 210°
2026-04-18 11:13 47.79339 7.82180 31327 ft 450 kts 210°
2026-04-18 11:13 47.76528 7.80131 31537 ft 449 kts 210°
2026-04-18 11:13 47.73717 7.78086 31726 ft 448 kts 210°
2026-04-18 11:14 47.70924 7.76062 31920 ft 448 kts 210°
2026-04-18 11:14 47.68116 7.74028 32119 ft 448 kts 210°
2026-04-18 11:14 47.65316 7.72002 32335 ft 447 kts 210°
2026-04-18 11:14 47.62527 7.69985 32553 ft 446 kts 209°
2026-04-18 11:15 47.59737 7.67969 32764 ft 445 kts 209°
2026-04-18 11:15 47.56958 7.65964 32982 ft 444 kts 209°
2026-04-18 11:15 47.54178 7.63962 33141 ft 444 kts 209°
2026-04-18 11:15 47.51404 7.61970 33198 ft 442 kts 209°
2026-04-18 11:16 47.45881 7.58000 33189 ft 441 kts 209°
2026-04-18 11:16 47.40366 7.54045 33184 ft 440 kts 209°
2026-04-18 11:17 47.34843 7.50097 33186 ft 440 kts 209°
2026-04-18 11:17 47.29359 7.46191 33186 ft 440 kts 209°
2026-04-18 11:18 47.23841 7.42284 33196 ft 440 kts 209°
2026-04-18 11:18 47.18399 7.38196 33197 ft 437 kts 217°
2026-04-18 11:19 47.13924 7.32295 33195 ft 429 kts 234°
2026-04-18 11:19 47.10220 7.25421 33197 ft 430 kts 234°
2026-04-18 11:20 47.06476 7.18575 33200 ft 430 kts 234°
2026-04-18 11:20 47.02736 7.11735 33214 ft 430 kts 234°
2026-04-18 11:21 46.99002 7.04882 33225 ft 430 kts 234°
2026-04-18 11:21 46.95255 6.98043 33218 ft 431 kts 234°
2026-04-18 11:22 46.91495 6.91215 33233 ft 431 kts 233°
2026-04-18 11:22 46.87735 6.84397 33246 ft 431 kts 233°
2026-04-18 11:23 46.83970 6.77591 33233 ft 430 kts 233°
2026-04-18 11:23 46.80231 6.70843 33238 ft 430 kts 233°
2026-04-18 11:24 46.76465 6.64053 33212 ft 430 kts 233°
2026-04-18 11:24 46.72686 6.57281 33209 ft 430 kts 233°
2026-04-18 11:25 46.68900 6.50513 33213 ft 431 kts 233°
2026-04-18 11:25 46.65122 6.43761 33215 ft 430 kts 233°
2026-04-18 11:26 46.61342 6.37026 33223 ft 430 kts 233°
2026-04-18 11:26 46.57550 6.30281 33218 ft 430 kts 233°